Orbital Elements at Epoch 2459000.5 (2020-May-31.0) TDB
Reference: JPL 14 (heliocentric ecliptic J2000)
Element | Value | Uncertainty (1-sigma) | Units |
e | .08259960625257139 | 3.8732e-08 | |
a | 2.648338350375182 | 1.8535e-08 | au |
q | 2.429586645410608 | 1.0194e-07 | au |
i | 2.129753296141879 | 5.1789e-06 | deg |
node | 221.5983558139828 | 0.00014866 | deg |
peri | 218.2236441976138 | 0.00015499 | deg |
M | 51.37547630933221 | 4.3775e-05 | deg |
tp | 2458775.847119367378 (2019-Oct-19.34711937) | 0.0001906 | TDB |
period | 1574.195371752754 4.31 | 1.6526e-05 4.525e-08 | d yr |
n | .2286882597038548 | 2.4007e-09 | deg/d |
Q | 2.867090055339756 | 2.0065e-08 | au |
|
| | Orbit Determination Parameters
Additional Information
|